Location: Unspecified
(50.7693°N, 0.0000°E)
Time: 08:32:45
(UTC+00:00)

Transit 2A - Pass Details

Date: 26 June 2019
Orbit: 595 x 964 km, 66.7° (Epoch: 24 July)

Event Time Altitude Azimuth Distance (km) Brightness Sun altitude
Rises 08:34:28 0° 319° (NW) 3,451 9.0 41.6°
Reaches altitude 10° 08:37:13 10° 311° (NW) 2,451 8.3 42.0°
Maximum altitude 08:42:18 37° 246° (WSW) 1,201 7.1 42.8°
Drops below altitude 10° 08:46:55 10° 181° (S) 2,206 8.7 43.5°
Sets 08:49:17 0° 172° (S) 3,064 9.4 43.8°
